View from above orbital plane
|
View from above satellite
|
Ground track
|
The orbit data is extracted from the following two-line orbital elements,
1 25544U 98067A 21022.72824315 .00016717 00000-0 10270-3 0 9084
2 25544 51.6461 342.1813 0002271 281.5957 78.4938 15.48924581 26044
Epoch (UTC): | 22 January 2021 17:28:40 |
Eccentricity: | 0.0002271 |
inclination: | 51.6461° |
perigee height: | 418 km |
apogee height: | 421 km |
right ascension of ascending node: | 342.1813° |
argument of perigee: | 281.5957° |
revolutions per day: | 15.48924581 |
mean anomaly at epoch: | 78.4938° |
orbit number at epoch: | 2604 |
The dashed part of the orbit path shows where the satellite is in the earth's shadow,
|
|